Theta_e
309 309 309 310 309 309 309 309 309 310 309 310 311 312 314 315 315 314 314 314 315 316 316 317 318 318 318 322 329 330 332 335 338 350 350 350 345 346 346 348 349 349 348 347 347 347 348
308 308 309 309 309 309 309 309 309 309 309 309 310 310 311 313 314 315 315 314 315 316 316 317 318 318 318 321 327 331 330 334 336 340 346 350 349 344 348 349 348 347 346 346 346 346 346
307 307 308 308 308 308 309 309 309 309 309 309 309 310 310 311 312 314 315 315 315 315 316 316 317 318 318 324 328 331 330 333 334 335 347 346 342 344 350 351 349 349 346 345 345 346 346
307 306 307 307 307 307 308 308 308 309 309 309 309 309 310 310 311 312 314 315 315 315 316 316 317 317 319 321 326 332 330 332 332 333 342 344 339 342 350 348 347 347 342 348 345 346 347
308 308 307 307 307 307 307 307 308 308 309 309 310 310 310 310 311 312 313 315 315 315 315 316 316 317 319 320 325 330 330 334 336 336 338 337 338 346 350 349 349 346 347 347 347 344 344
308 308 309 308 308 307 307 307 307 307 308 308 309 310 310 310 311 311 312 314 316 314 315 316 316 319 319 321 321 326 326 331 332 334 337 339 344 342 342 348 354 351 350 350 348 347 346
306 306 307 308 309 309 308 308 307 307 307 308 308 310 310 310 311 311 312 315 317 319 315 317 317 318 322 322 322 322 325 325 326 333 333 335 335 341 343 347 349 349 350 351 350 348 348
306 306 306 306 307 308 309 309 309 308 307 307 308 309 310 310 311 311 313 318 318 317 317 320 319 318 318 319 320 323 324 325 326 330 333 333 336 335 337 340 341 342 345 350 349 349 348
308 307 307 306 306 306 307 309 309 309 309 308 308 308 309 310 311 311 313 318 318 318 316 319 319 320 320 320 321 323 324 325 326 329 333 335 337 335 338 338 339 342 349 349 350 349 346
306 307 307 306 306 306 306 306 308 309 310 309 308 308 309 310 310 312 318 317 318 319 311 314 317 319 320 323 322 323 323 325 327 330 332 334 333 336 337 337 337 337 340 345 349 345 346
305 306 306 307 307 306 306 306 306 307 309 310 310 309 308 309 310 316 318 317 319 318 315 317 319 321 322 322 321 322 323 324 324 332 332 335 334 335 336 335 334 333 332 335 342 342 342
306 305 305 307 306 306 305 305 306 306 307 309 311 311 309 309 310 315 317 318 319 314 317 321 321 320 321 321 321 321 322 324 326 330 328 332 328 327 329 328 329 328 336 336 335 338 343
308 306 305 307 306 306 306 306 305 306 307 307 309 311 311 309 310 314 317 318 315 316 317 322 322 319 318 319 320 320 320 323 324 328 330 327 329 326 327 328 327 333 336 342 343 342 344
306 308 306 305 306 306 306 306 305 306 306 307 307 309 312 311 309 314 317 314 318 316 317 318 319 317 319 318 319 318 318 319 320 322 321 327 329 326 326 327 330 334 336 340 344 340 340
304 304 306 305 304 304 304 304 304 305 306 307 306 309 313 312 310 312 317 312 314 314 319 319 320 320 320 318 318 318 317 316 317 319 323 323 326 322 324 326 325 329 336 333 335 332 337
307 305 303 306 307 304 304 304 304 305 306 306 306 310 313 310 309 312 312 312 314 314 316 318 322 321 319 318 319 317 315 315 317 319 322 321 324 321 324 325 330 327 329 335 330 340 343
307 305 304 304 306 306 304 304 304 304 305 306 307 312 317 310 309 314 312 311 314 317 316 317 319 320 321 320 316 314 316 316 315 315 319 317 318 320 320 321 322 333 334 331 330 331 337
307 307 308 306 304 307 305 304 305 304 305 306 308 314 314 310 311 306 309 311 315 314 315 314 316 318 320 320 318 316 317 317 318 318 319 317 316 319 320 319 319 327 330 331 331 336 332
305 307 309 307 304 304 305 306 305 304 304 307 308 315 312 312 307 307 308 311 313 313 312 313 316 317 317 319 321 318 317 320 318 317 317 316 316 318 319 318 321 324 329 327 327 330 335
305 306 308 306 304 304 305 307 305 305 305 306 309 313 313 311 312 306 310 312 312 314 313 314 313 315 317 319 316 321 322 324 321 319 321 322 312 318 319 319 319 326 332 330 330 334 332
307 307 308 306 304 304 306 306 306 306 305 306 308 311 313 312 310 312 315 316 316 319 315 314 314 314 316 317 320 319 320 324 323 330 321 316 318 315 317 319 322 323 324 331 331 330 334
307 307 306 305 304 305 305 307 307 306 306 307 311 315 317 315 316 313 312 316 317 317 317 318 314 316 313 315 317 322 324 323 326 320 318 313 319 317 320 318 320 336 336 326 339 329 330
306 307 305 304 304 304 305 308 307 306 306 312 312 314 314 314 313 314 313 318 317 319 320 321 316 317 317 315 318 321 320 322 323 321 314 314 314 316 320 319 327 330 335 338 336 333 334
305 306 304 305 304 304 307 308 308 306 305 307 308 312 315 315 314 318 319 319 320 321 322 323 320 316 319 321 321 319 321 321 320 321 314 312 313 314 316 321 324 330 332 331 331 329 328
306 305 305 304 304 304 306 307 307 306 306 305 306 311 315 313 315 317 318 319 319 320 320 322 324 322 321 323 318 319 319 322 323 315 318 311 313 314 318 323 333 335 332 333 338 331 326
307 305 305 304 304 304 305 305 305 305 305 305 306 311 313 313 313 316 317 317 317 316 316 321 322 322 320 314 317 320 321 321 325 325 316 315 313 319 323 336 338 332 328 326 329 337 325
306 306 306 305 305 305 305 305 305 305 305 305 311 312 314 314 315 316 316 316 317 316 314 315 318 321 320 315 318 319 322 322 326 330 330 320 320 322 329 329 329 323 322 326 336 335 324
306 306 306 306 306 306 305 305 305 305 305 306 312 314 315 315 314 313 315 315 316 316 314 317 318 317 318 318 318 319 320 321 328 329 328 325 324 329 326 330 333 321 324 332 325 323 323
306 306 307 306 306 306 306 305 305 305 305 309 313 314 314 314 314 312 311 311 315 316 315 316 317 318 318 317 318 317 325 323 323 330 322 326 322 322 322 322 321 322 320 322 322 322 323
Wind_Speed
10 9 9 8 8 8 9 8 6 6 6 7 7 7 8 8 8 7 6 6 6 5 4 5 4 4 2 3 1 2 7 8 7 6 2 3 1 1 1 1 1 1 4 10 2 4 10
10 10 9 9 8 8 8 8 8 7 7 7 8 7 8 8 8 8 7 6 6 6 5 5 4 3 2 2 3 2 6 7 7 5 3 3 4 3 3 4 2 4 7 10 9 6 9
10 10 10 9 9 8 8 8 8 8 8 8 8 8 8 9 8 8 7 7 6 7 5 5 5 4 6 7 6 5 7 9 6 5 2 3 8 7 2 3 5 3 4 3 7 2 3
11 11 10 10 9 9 9 9 9 9 9 9 9 9 8 8 9 7 7 7 7 7 6 6 5 4 5 8 11 8 8 8 8 7 6 3 5 4 1 3 6 5 4 3 4 2 3
11 11 11 10 9 9 9 9 9 10 10 10 9 9 10 9 8 7 7 7 6 6 6 5 4 4 4 8 14 14 8 6 6 4 3 5 4 0 2 3 3 6 2 2 4 1 2
13 12 11 11 10 9 9 10 9 10 10 10 10 9 10 10 8 6 6 5 4 4 5 5 6 3 5 3 8 15 10 9 4 3 5 3 2 3 4 5 1 3 4 4 4 1 2
13 13 13 11 10 10 10 10 10 10 11 11 11 10 10 10 8 5 3 1 2 2 8 7 3 3 3 3 8 14 15 10 4 2 3 2 4 3 3 1 2 1 2 5 4 2 4
14 14 14 14 13 11 11 11 11 11 11 11 11 10 9 9 8 3 1 5 7 2 6 15 19 20 17 13 5 11 15 10 6 3 3 5 3 4 4 2 2 3 3 5 7 3 1
16 16 14 14 14 13 12 11 11 11 11 11 11 11 9 8 6 1 8 7 1 4 1 7 12 15 15 8 6 9 18 11 4 5 3 5 4 5 3 2 3 2 3 3 5 4 2
16 14 16 16 15 14 13 13 12 11 12 11 11 11 9 5 1 4 10 2 2 3 5 6 4 5 11 6 4 10 17 12 2 9 7 4 4 3 2 2 4 4 2 5 5 1 2
17 16 16 16 17 17 14 13 14 13 12 12 12 11 8 4 2 6 7 1 4 4 2 3 4 2 10 11 5 10 19 12 8 6 6 7 1 2 2 4 3 6 3 4 4 4 3
18 16 17 17 18 19 17 12 13 14 13 12 11 12 8 6 4 8 5 2 10 5 5 0 5 5 5 3 2 5 7 8 6 5 3 6 1 2 5 3 3 6 2 6 5 3 3
16 18 18 17 18 18 18 15 12 13 13 14 11 11 11 7 4 11 6 10 5 3 4 3 4 4 3 4 2 2 6 6 6 5 3 5 4 3 3 5 4 5 5 3 3 4 5
13 17 18 18 17 18 20 17 15 13 13 13 12 12 12 8 8 10 8 4 4 4 5 4 2 4 6 5 3 2 6 5 1 6 4 5 6 6 3 8 4 2 6 5 5 4 4
15 16 17 18 19 20 20 20 17 14 11 12 11 11 11 8 12 13 8 3 7 6 2 4 1 4 2 2 5 3 5 8 8 7 6 5 5 4 4 4 7 2 1 2 7 3 2
16 18 17 16 19 20 20 19 17 13 9 10 8 7 7 7 14 16 4 5 4 3 4 2 2 2 6 6 4 6 6 6 7 12 8 7 0 2 2 3 5 3 3 3 3 4 2
16 17 18 17 18 19 20 19 18 12 8 7 5 2 2 13 19 10 4 6 5 6 3 1 0 1 2 5 7 6 9 4 6 7 5 5 4 5 1 4 8 2 2 6 4 3 5
14 17 19 21 17 18 19 17 17 12 7 3 2 2 6 24 4 1 4 6 2 3 1 2 1 2 2 2 5 6 11 7 20 19 11 7 5 4 10 3 1 3 6 6 5 4 2
13 14 18 20 19 16 16 16 15 12 9 6 2 3 15 6 4 2 3 3 3 3 3 1 3 4 0 1 1 6 6 8 16 10 11 9 2 1 9 6 1 4 5 5 5 4 7
13 14 16 19 17 14 13 15 12 10 8 6 1 2 4 7 1 5 4 3 3 4 4 5 4 1 1 2 3 2 3 0 12 12 20 21 4 8 8 8 5 4 5 4 5 4 6
16 16 15 16 14 14 12 13 11 10 6 2 1 0 2 4 4 2 1 2 3 2 4 6 2 6 6 4 1 4 4 4 5 8 12 7 9 7 6 5 2 1 2 9 8 5 6
15 16 14 13 12 12 11 13 12 10 5 1 1 1 1 1 1 6 5 4 6 5 4 5 5 4 8 7 8 4 2 3 4 1 4 2 4 5 4 5 5 4 3 6 2 3 4
13 15 13 12 11 11 10 12 12 9 6 0 1 0 1 2 1 4 4 4 5 4 9 17 9 2 3 11 17 27 17 11 3 6 5 7 7 5 7 5 7 2 1 3 4 4 3
12 13 12 12 11 10 8 9 11 9 6 3 1 0 1 1 1 2 1 3 4 4 4 4 10 5 9 8 9 6 9 10 8 4 4 6 6 3 4 4 3 4 7 12 12 6 8
12 11 10 11 10 10 8 7 8 8 6 5 3 1 1 1 2 1 3 3 11 6 5 7 10 6 13 7 2 4 3 4 2 5 3 3 5 4 5 4 2 3 6 1 4 4 8
12 11 10 10 10 9 9 8 8 8 7 6 3 4 1 2 3 2 2 3 2 4 5 5 3 7 4 3 2 6 6 6 4 3 5 6 5 4 3 7 7 3 3 9 3 4 9
11 11 11 11 11 11 10 9 8 7 7 4 4 3 1 2 3 1 1 2 3 2 3 5 10 3 3 3 3 4 4 4 4 5 2 4 4 5 3 4 1 1 13 3 4 6 4
10 11 10 10 9 8 8 8 7 6 4 1 7 3 1 3 9 7 5 5 5 1 1 7 4 4 4 3 3 3 3 2 5 3 3 3 3 2 2 5 3 17 4 5 9 19 17
9 9 9 8 7 9 9 7 5 3 0 7 6 0 3 7 7 12 18 14 13 13 12 4 1 3 1 2 1 2 3 3 1 3 4 3 3 5 2 4 4 13 19 23 26 26 23
Wind_Direction
4 4 3 3 1 356 354 352 341 333 329 317 312 310 307 308 306 306 304 299 295 289 292 298 299 294 271 224 169 83 165 166 148 170 157 33 89 173 103 250 181 31 323 331 267 43 155
2 360 359 359 356 354 352 348 346 339 332 326 314 305 303 303 303 302 298 292 290 282 280 286 289 286 254 239 203 178 175 173 160 181 199 30 24 48 55 1 53 321 302 323 37 129 127
1 359 356 356 353 349 347 345 343 339 334 330 322 311 302 300 298 297 295 287 282 277 274 276 277 270 248 210 197 183 160 173 185 176 152 83 17 6 36 324 341 342 29 21 39 357 127
0 354 352 351 349 347 345 340 339 336 330 327 325 318 306 298 296 293 289 281 273 269 267 265 269 279 244 211 200 183 163 178 186 195 173 301 340 341 236 359 10 17 57 74 309 3 169
352 349 346 344 343 342 340 338 333 331 330 327 323 320 314 305 298 293 283 276 265 262 260 263 269 261 245 213 205 199 188 184 176 169 185 274 312 14 28 70 31 15 38 1 306 244 154
346 343 340 339 338 334 333 333 329 325 324 325 323 319 315 312 302 295 282 276 265 251 247 249 244 277 247 167 202 210 202 190 187 126 124 164 138 71 37 54 76 26 8 312 267 260 62
334 332 331 330 328 328 327 325 324 321 320 322 321 317 313 311 309 303 283 191 187 226 227 219 180 221 163 135 191 204 204 197 188 136 117 60 79 207 187 234 157 256 220 260 268 220 176
335 329 323 321 320 319 318 316 317 316 316 318 317 313 313 311 313 322 125 123 109 304 306 242 248 253 248 263 296 191 188 175 165 157 125 20 259 208 141 168 282 266 271 283 289 183 330
345 342 333 322 313 309 307 308 308 309 311 313 313 309 312 312 313 133 145 134 66 318 266 281 235 243 244 237 224 206 179 173 135 131 152 165 210 123 132 60 333 269 183 229 254 3 71
350 341 341 336 327 310 302 297 299 301 304 307 308 305 309 321 276 143 153 145 273 200 54 270 231 233 203 178 245 196 186 170 115 175 148 236 270 240 193 254 173 347 209 255 270 106 245
353 347 345 343 337 328 310 295 293 292 294 298 300 299 302 291 261 154 162 309 173 150 9 201 175 204 175 176 138 180 182 180 158 158 122 236 240 198 149 167 168 240 340 281 206 126 94
351 348 345 342 338 332 327 308 293 286 286 287 290 294 290 282 237 173 176 138 143 48 254 190 135 155 125 226 148 121 160 185 167 124 67 202 296 277 164 250 220 261 60 41 46 82 29
346 347 346 344 341 338 336 327 307 288 282 280 280 282 282 257 179 174 184 152 56 150 305 172 180 154 135 160 112 140 144 142 150 126 226 352 282 265 157 331 356 80 62 352 9 16 215
340 338 342 342 339 337 335 336 322 301 281 280 279 272 267 248 212 186 177 65 176 235 250 311 96 93 164 153 198 88 113 160 66 101 108 154 315 174 184 179 187 159 153 157 189 188 244
340 331 336 338 339 338 335 333 326 313 293 287 283 273 266 235 203 187 176 120 204 208 286 345 354 121 169 203 144 127 170 192 189 174 143 131 264 280 208 153 131 182 159 175 102 12 68
345 341 337 337 338 339 338 336 333 321 306 300 291 276 248 205 185 178 101 219 226 222 327 22 188 138 165 182 137 146 172 199 197 191 158 194 151 245 305 103 51 143 145 74 18 134 237
347 353 350 338 332 338 339 337 337 330 321 306 290 246 252 171 163 172 175 221 245 264 284 45 178 33 161 175 168 179 204 255 200 168 125 128 103 290 130 178 174 62 66 52 110 107 159
329 339 342 347 334 333 339 339 341 341 344 298 250 100 150 151 104 79 159 193 205 272 296 338 214 223 189 134 162 208 201 231 177 150 158 199 157 204 236 226 320 175 168 148 127 214 86
335 340 337 340 338 332 339 344 346 348 6 14 34 82 162 135 138 233 256 245 227 208 249 12 291 191 241 112 230 204 201 227 168 148 159 178 198 60 341 0 71 190 176 127 112 89 187
336 333 335 339 343 341 343 344 349 350 354 350 235 88 147 231 281 150 151 206 236 263 246 214 245 215 199 279 196 291 261 310 195 196 189 149 137 167 198 206 162 171 161 155 120 128 168
341 338 336 339 345 347 350 353 354 349 351 335 188 192 143 196 257 187 116 158 165 270 230 213 240 213 174 219 247 225 237 323 55 152 151 130 189 181 220 213 214 121 159 168 187 176 160
337 340 332 339 345 350 354 355 357 355 354 77 82 25 148 173 183 136 171 232 208 237 213 258 212 201 188 194 195 198 164 184 194 130 132 23 200 148 222 195 179 96 6 131 68 84 294
338 340 338 338 344 350 353 354 353 1 6 58 97 269 326 354 61 111 206 197 235 156 239 225 227 147 204 232 248 256 257 291 263 164 158 151 136 121 240 143 123 24 220 141 122 80 289
337 340 339 336 336 342 353 346 343 354 7 17 350 246 165 232 135 146 170 301 246 236 248 263 238 191 244 242 298 242 255 264 243 227 145 142 115 85 137 72 161 291 101 112 100 45 1
333 335 334 333 335 339 344 333 330 333 344 335 296 228 118 170 283 313 329 272 305 292 237 236 251 235 279 296 47 62 336 320 139 47 212 118 128 88 129 88 102 295 264 108 131 9 7
331 330 331 331 333 331 328 327 329 327 327 326 278 191 109 124 244 314 305 315 333 320 324 264 294 299 188 116 125 150 185 193 208 114 75 80 74 103 126 124 190 226 100 1 124 32 12
328 331 324 318 318 319 318 316 316 319 322 321 166 127 167 273 255 244 230 272 340 330 253 303 338 337 31 118 123 154 207 198 145 114 19 29 21 119 120 111 284 25 308 328 117 177 78
320 327 330 332 331 331 332 329 319 317 320 205 153 114 203 267 276 260 259 273 314 1 2 318 360 343 15 74 142 203 122 179 88 65 74 116 112 108 93 99 185 348 334 170 139 118 107
320 328 337 344 346 338 336 336 329 332 45 154 149 244 275 259 271 280 279 272 269 291 279 289 275 252 261 69 22 121 90 66 131 129 5 41 167 143 85 137 9 48 81 110 113 103 95